Buffalo, NY

1:36 PM EST on December 15, 2019 (GMT -0500)
Buffalo Niagara International

Weather History for KBUF - August, 2019

Change the Weather History Date:

Saturday, August 17, 2019

  Actual Average Record
Temperature  
Mean Temperature 72 °F 70 °F  
Max Temperature 79 °F 79 °F 93 °F (1955)
Min Temperature 64 °F 61 °F 46 °F (1961)
Degree Days  
Heating Degree Days 0 1  
Month to date heating degree days 0 2  
Since 1 June heating degree days 62 75  
Since 1 July heating degree days 0 11  
Cooling Degree Days 7 5  
Month to date cooling degree days 113 99  
Year to date cooling degree days 481 425  
Since 1 June cooling degree days 473 399  
Growing Degree Days 22 (Base 50)    
Moisture  
Dew Point 65 °F    
Average Humidity 79    
Maximum Humidity 90    
Minimum Humidity 67    
Precipitation  
Precipitation 0.57 in 0.10 in 3.65 in (1944)
Month to date precipitation 2.14 1.82  
Year to date precipitation 26.89 23.72  
Snow  
Snow 0.00 in 0.00 in 0.00 in ()
Month to date snowfall 0.0 0.0  
Since 1 June snowfall 0.0 0.0  
Since 1 July snowfall 0.0 0.0  
Snow Depth 0.00 in    
Sea Level Pressure  
Sea Level Pressure 29.94 in    
Wind  
Wind Speed 9 mph (South)    
Max Wind Speed 21 mph    
Max Gust Speed 26 mph    
Visibility 9 miles    
Events Rain , Thunderstorm    
T = Trace of Precipitation, MM = Missing Value Source: NWS Daily Summary

Daily Weather History Graph

Daily Weather History Graph

Search for Another Location

Airport or City:

Astronomy

Aug. 17, 2019 Rise Set
Actual Time 6:22 AM EDT 8:14 PM EDT
Civil Twilight 5:52 AM EDT 8:44 PM EDT
Nautical Twilight 5:15 AM EDT 9:21 PM EDT
Astronomical Twilight 4:34 AM EDT 10:01 PM EDT
Moon 9:38 PM EDT (8/17) 8:11 AM EDT (8/17)
Length of Visible Light 14h 52m
Length of Day
13h 51m
Waning Gibbous, 96% of the Moon is Illuminated
Aug 17
Waning Gibbous
Aug 23
Last Quarter
Aug 30
New
Sep 5
First Quarter
Sep 14
Full

Hourly Weather History & Observations

Time (EDT) Temp. Dew Point Humidity Pressure Visibility Wind Dir Wind Speed Gust Speed Precip Events Conditions
12:54 AM 66.9 °F 62.1 °F 84% 29.97 in 10.0 mi South 5.8 mph - N/A   Mostly Cloudy
1:54 AM 66.0 °F 61.0 °F 84% 29.96 in 10.0 mi South 4.6 mph - N/A   Mostly Cloudy
2:54 AM 64.9 °F 60.1 °F 84% 29.96 in 10.0 mi South 5.8 mph - N/A   Mostly Cloudy
3:54 AM 64.9 °F 59.0 °F 81% 29.96 in 10.0 mi South 3.5 mph - N/A   Mostly Cloudy
4:54 AM 64.0 °F 59.0 °F 84% 29.94 in 10.0 mi SSE 5.8 mph - N/A   Mostly Cloudy
5:54 AM 64.0 °F 59.0 °F 84% 29.94 in 10.0 mi SSE 6.9 mph - N/A   Mostly Cloudy
6:54 AM 64.9 °F 60.1 °F 84% 29.93 in 10.0 mi SSE 6.9 mph - N/A   Mostly Cloudy
7:54 AM 66.9 °F 60.1 °F 79% 29.92 in 10.0 mi SSE 6.9 mph - N/A   Mostly Cloudy
8:54 AM 68.0 °F 61.0 °F 78% 29.94 in 8.0 mi Calm Calm - 0.00 in Rain Light Rain
9:54 AM 70.0 °F 63.0 °F 78% 29.92 in 10.0 mi NE 4.6 mph - 0.03 in   Overcast
10:00 AM 70.0 °F 63.0 °F 78% 29.94 in 9.0 mi NW 10.4 mph 19.6 mph 0.00 in Rain , Thunderstorm Light Thunderstorms and Rain
10:12 AM 66.9 °F 64.0 °F 90% 29.96 in 0.8 mi NNW 10.4 mph - 0.14 in Rain , Thunderstorm Heavy Thunderstorms and Rain
10:21 AM 66.9 °F 64.9 °F 93% 29.96 in 6.0 mi Variable 3.5 mph - 0.31 in Rain , Thunderstorm Light Thunderstorms and Rain
10:54 AM 66.9 °F 64.0 °F 90% 29.95 in 6.0 mi East 6.9 mph - 0.37 in Rain Light Rain
11:03 AM 66.9 °F 64.9 °F 93% 29.96 in 1.0 mi East 5.8 mph - 0.02 in Rain , Thunderstorm Heavy Thunderstorms and Rain
11:12 AM 66.9 °F 64.9 °F 93% 29.96 in 3.0 mi East 4.6 mph - 0.16 in Rain , Thunderstorm Thunderstorms and Rain
11:21 AM 66.9 °F 64.9 °F 93% 29.96 in 9.0 mi South 4.6 mph - 0.17 in Rain Light Rain
11:54 AM 68.0 °F 64.9 °F 90% 29.96 in 10.0 mi SSE 8.1 mph - 0.17 in   Mostly Cloudy
12:54 PM 70.0 °F 66.9 °F 90% 29.95 in 10.0 mi SSE 10.4 mph - N/A   Overcast
1:18 PM 71.1 °F 66.9 °F 87% 29.95 in 10.0 mi SSE 9.2 mph - N/A   Overcast
1:46 PM 73.9 °F 68.0 °F 82% 29.95 in 10.0 mi South 12.7 mph - N/A   Mostly Cloudy
1:54 PM 75.9 °F 69.1 °F 79% 29.94 in 10.0 mi SSW 13.8 mph 21.9 mph N/A   Mostly Cloudy
2:32 PM 77.0 °F 66.9 °F 71% 29.94 in 10.0 mi SW 12.7 mph - N/A   Mostly Cloudy
2:54 PM 78.1 °F 68.0 °F 71% 29.93 in 10.0 mi SW 15.0 mph 21.9 mph N/A   Mostly Cloudy
3:15 PM 79.0 °F 69.1 °F 72% 29.93 in 10.0 mi WSW 15.0 mph - N/A   Mostly Cloudy
3:54 PM 79.0 °F 69.1 °F 72% 29.91 in 10.0 mi SW 18.4 mph - N/A   Mostly Cloudy
4:54 PM 79.0 °F 69.1 °F 72% 29.91 in 10.0 mi WSW 13.8 mph 23.0 mph N/A   Scattered Clouds
5:54 PM 79.0 °F 66.9 °F 66% 29.91 in 10.0 mi SW 18.4 mph - N/A   Partly Cloudy
6:54 PM 77.0 °F 66.9 °F 71% 29.91 in 10.0 mi WSW 16.1 mph - N/A   Partly Cloudy
7:54 PM 75.0 °F 68.0 °F 79% 29.91 in 10.0 mi SW 12.7 mph - N/A   Mostly Cloudy
8:54 PM 73.9 °F 68.0 °F 82% 29.91 in 10.0 mi SW 10.4 mph - N/A   Scattered Clouds
9:54 PM 73.0 °F 68.0 °F 84% 29.93 in 10.0 mi SW 11.5 mph - N/A   Scattered Clouds
10:54 PM 70.0 °F 66.0 °F 87% 29.94 in 10.0 mi SSW 6.9 mph - N/A   Scattered Clouds
11:54 PM 70.0 °F 64.9 °F 84% 29.96 in 10.0 mi SW 3.5 mph - N/A   Scattered Clouds